Papa, Hungary

8:55 PM CEST on July 28, 2016 (GMT +0200)
Papa

Weather History for LHPA - October, 2012

Change the Weather History Date:

Saturday, October 6, 2012

  Actual Average Record
Temperature  
Mean Temperature 64 °F -  
Max Temperature 75 °F - - ()
Min Temperature 53 °F - - ()
Degree Days  
Heating Degree Days 1    
Growing Degree Days 14 (Base 50)    
Moisture  
Dew Point 53 °F    
Average Humidity 71    
Maximum Humidity 88    
Minimum Humidity 50    
Precipitation  
Precipitation 0.00 in - - ()
Sea Level Pressure  
Sea Level Pressure 30.05 in    
Wind  
Wind Speed 8 mph ()    
Max Wind Speed 13 mph    
Max Gust Speed -    
Visibility 4.1 miles    
Events Fog    
T = Trace of Precipitation, MM = Missing Value Source: Averaged Metar Reports

Daily Weather History Graph

Daily Weather History Graph

Search for Another Location

Airport or City:

Trip Planner

Search our weather history database for the weather conditions in past years. The results will help you decide how hot, cold, wet, or windy it might be!

Date:

Astronomy

Oct. 06, 2012 Rise Set
Actual Time 6:56 AM CEST 6:19 PM CEST
Civil Twilight 6:25 AM CEST 6:49 PM CEST
Nautical Twilight 5:50 AM CEST 7:25 PM CEST
Astronomical Twilight 5:14 AM CEST 8:00 PM CEST
Moon 10:00 PM CEST (10/6) 12:56 PM CEST (10/6)
Length of Visible Light 12h 24m
Length of Day
11h 23m
Waning Gibbous, 68% of the Moon is Illuminated
Oct 6
Waning Gibbous
Oct 8
Last Quarter
Oct 15
New
Oct 22
First Quarter
Oct 29
Full

Hourly Weather History & Observations

Time (CEST) Temp. Dew Point Humidity Pressure Visibility Wind Dir Wind Speed Gust Speed Precip Events Conditions
12:15 AM 59.0 °F 50.0 °F 72% 30.09 in - South 11.2 mph - N/A   Clear
12:45 AM 57.2 °F 50.0 °F 77% 30.09 in - South 11.2 mph - N/A   Clear
1:15 AM 57.2 °F 50.0 °F 77% 30.09 in - South 11.2 mph - N/A   Clear
1:45 AM 57.2 °F 50.0 °F 77% 30.09 in - South 11.2 mph - N/A   Clear
2:15 AM 57.2 °F 48.2 °F 72% 30.09 in - South 8.9 mph - N/A   Clear
2:45 AM 57.2 °F 48.2 °F 72% 30.06 in - South 11.2 mph - N/A   Clear
3:15 AM 57.2 °F 46.4 °F 67% 30.06 in - South 8.9 mph - N/A   Clear
3:45 AM 55.4 °F 46.4 °F 72% 30.09 in - South 8.9 mph - N/A   Clear
4:15 AM 55.4 °F 46.4 °F 72% 30.09 in - South 6.7 mph - N/A   Clear
4:45 AM 55.4 °F 46.4 °F 72% 30.09 in - South 4.5 mph - N/A   Clear
5:15 AM 53.6 °F 48.2 °F 82% 30.09 in - South 4.5 mph - N/A   Clear
5:45 AM 53.6 °F 48.2 °F 82% 30.09 in - South 6.7 mph - N/A   Clear
6:15 AM 53.6 °F 48.2 °F 82% 30.09 in - South 4.5 mph - N/A   Clear
6:45 AM - - N/A% - - South 6.7 mph - N/A   Clear
7:15 AM 53.6 °F 48.2 °F 82% 30.09 in - SSE 6.7 mph - N/A   Clear
7:45 AM 57.2 °F 50.0 °F 77% 30.09 in - South 4.5 mph - N/A   Clear
8:15 AM 59.0 °F 51.8 °F 77% 30.09 in - South 6.7 mph - N/A   Clear
8:45 AM 60.8 °F 51.8 °F 72% 30.09 in - South 6.7 mph - N/A   Clear
9:15 AM 62.6 °F 53.6 °F 72% 30.09 in - SSW 8.9 mph - N/A   Clear
9:45 AM 64.4 °F 53.6 °F 68% 30.09 in - SSW 8.9 mph - N/A   Clear
10:15 AM 66.2 °F 53.6 °F 64% 30.09 in - SSW 11.2 mph - N/A   Clear
10:45 AM 66.2 °F 55.4 °F 68% 30.09 in - SSW 11.2 mph - N/A   Clear
11:15 AM 68.0 °F 55.4 °F 64% 30.09 in - SW 8.9 mph - N/A   Clear
11:45 AM 69.8 °F 55.4 °F 60% 30.09 in - SSW 8.9 mph - N/A   Clear
12:15 PM 73.4 °F 55.4 °F 53% 30.06 in - South 8.9 mph - N/A   Clear
12:45 PM - - N/A% - 6.2 mi SSW 8.9 mph - N/A   Clear
1:15 PM 75.2 °F 55.4 °F 50% 30.06 in - South 11.2 mph - N/A   Clear
1:45 PM 73.4 °F 53.6 °F 50% 30.04 in - South 8.9 mph - N/A   Clear
2:15 PM 73.4 °F 55.4 °F 53% 30.04 in - South 8.9 mph - N/A   Clear
2:45 PM 75.2 °F 55.4 °F 50% 30.01 in - South 8.9 mph - N/A   Clear
3:15 PM 75.2 °F 55.4 °F 50% 30.01 in - South 11.2 mph - N/A   Clear
3:45 PM - - N/A% - - South 8.9 mph - N/A   Clear
4:15 PM 73.4 °F 57.2 °F 57% 29.98 in - SSE 13.4 mph - N/A   Clear
4:45 PM 73.4 °F 57.2 °F 57% 29.98 in - South 11.2 mph - N/A   Clear
5:15 PM 73.4 °F 57.2 °F 57% 29.98 in - South 13.4 mph - N/A   Clear
5:45 PM 69.8 °F 57.2 °F 64% 29.98 in - SSW 8.9 mph - N/A   Clear
6:15 PM 68.0 °F 57.2 °F 68% 29.98 in - SSW 6.7 mph - N/A   Clear
6:45 PM - - N/A% - 3.1 mi South 6.7 mph - N/A Fog Clear
7:15 PM 62.6 °F 57.2 °F 82% 30.01 in - South 2.2 mph - N/A   Clear
7:45 PM 60.8 °F 55.4 °F 82% 30.01 in - South 2.2 mph - N/A   Clear
8:15 PM 59.0 °F 55.4 °F 88% 30.01 in - South 4.5 mph - N/A   Clear
8:45 PM 59.0 °F 55.4 °F 88% 29.98 in - SSE 4.5 mph - N/A   Clear
9:15 PM 60.8 °F 57.2 °F 88% 29.98 in - South 6.7 mph - N/A   Clear
9:45 PM - - N/A% - 3.1 mi South 6.7 mph - N/A Fog Clear
10:15 PM 62.6 °F 57.2 °F 82% 29.98 in - South 6.7 mph - N/A   Clear
10:45 PM 62.6 °F 57.2 °F 82% 29.98 in - South 6.7 mph - N/A   Clear
11:15 PM 60.8 °F 57.2 °F 88% 29.98 in - South 6.7 mph - N/A   Clear
11:45 PM 62.6 °F 57.2 °F 82% 29.98 in - South 6.7 mph - N/A   Clear